Time,TemperatureF,DewpointF,PressureIn,WindDirection,WindDirectionDegrees,WindSpeedMPH,WindSpeedGustMPH,Humidity,HourlyPrecipIn,Conditions,Clouds,dailyrainin,SoftwareType,DateUTC
2013-11-22 00:00:00,22.9,11.7,30.46,NNW,338,6.7,6.7,62,0.00,,,0.00,WUHU216HW,2013-11-22 06:00:00,
2013-11-22 00:05:00,22.9,11.7,30.46,North,0,4.5,6.7,62,0.00,,,0.00,WUHU216HW,2013-11-22 06:05:00,
2013-11-22 00:10:00,22.9,11.7,30.46,North,0,4.5,4.5,62,0.00,,,0.00,WUHU216HW,2013-11-22 06:10:00,
2013-11-22 00:30:00,22.7,11.5,30.47,NNW,338,8.9,8.9,62,0.00,,,0.00,WUHU216HW,2013-11-22 06:30:00,
2013-11-22 00:31:00,22.7,11.5,30.47,NW,325,6.8,8.9,62,0.00,,,0.00,WUHU216HW,2013-11-22 06:31:00,
2013-11-22 00:35:00,22.7,11.5,30.47,NW,315,5.8,8.9,62,0.00,,,0.00,WUHU216HW,2013-11-22 06:35:00,
2013-11-22 00:36:00,22.7,11.5,30.47,NW,315,5.8,8.9,62,0.00,,,0.00,WUHU216HW,2013-11-22 06:36:00,
2013-11-22 01:00:00,22.5,11.7,30.47,NNW,338,5.4,5.4,63,0.00,,,0.00,WUHU216HW,2013-11-22 07:00:00,
2013-11-22 01:05:00,22.5,11.7,30.47,WNW,293,4.5,5.4,63,0.00,,,0.00,WUHU216HW,2013-11-22 07:05:00,
2013-11-22 01:10:00,22.5,11.7,30.47,WNW,293,4.5,4.5,63,0.00,,,0.00,WUHU216HW,2013-11-22 07:10:00,
2013-11-22 01:30:00,22.3,11.6,30.47,NNW,338,3.6,3.6,63,0.00,,,0.00,WUHU216HW,2013-11-22 07:30:00,
2013-11-22 01:35:00,22.3,11.6,30.47,NNW,338,3.1,4.9,63,0.00,,,0.00,WUHU216HW,2013-11-22 07:35:00,
2013-11-22 01:36:00,22.3,11.6,30.47,NNW,338,3.1,4.9,63,0.00,,,0.00,WUHU216HW,2013-11-22 07:36:00,
2013-11-22 01:40:00,22.3,11.6,30.47,NNW,338,3.1,3.1,63,0.00,,,0.00,WUHU216HW,2013-11-22 07:40:00,
2013-11-22 02:00:00,22.0,11.3,30.48,North,0,4.7,4.7,63,0.00,,,0.00,WUHU216HW,2013-11-22 08:00:00,
2013-11-22 02:05:00,22.0,11.3,30.48,NNW,338,5.4,5.4,63,0.00,,,0.00,WUHU216HW,2013-11-22 08:05:00,
2013-11-22 02:10:00,22.0,11.3,30.48,NNW,338,5.4,5.4,63,0.00,,,0.00,WUHU216HW,2013-11-22 08:10:00,
2013-11-22 02:30:00,22.0,11.3,30.48,NW,315,3.4,3.4,63,0.00,,,0.00,WUHU216HW,2013-11-22 08:30:00,
2013-11-22 02:31:00,22.0,10.9,30.48,NW,315,4.9,4.9,62,0.00,,,0.00,WUHU216HW,2013-11-22 08:31:00,
2013-11-22 02:35:00,22.0,10.9,30.48,NW,315,4.9,4.9,62,0.00,,,0.00,WUHU216HW,2013-11-22 08:35:00,
2013-11-22 02:36:00,22.0,10.9,30.48,NW,315,4.9,4.9,62,0.00,,,0.00,WUHU216HW,2013-11-22 08:36:00,
2013-11-22 02:37:00,22.0,10.9,30.48,NW,315,4.9,4.9,62,0.00,,,0.00,WUHU216HW,2013-11-22 08:37:00,
2013-11-22 03:00:00,21.6,10.5,30.48,NNW,338,2.5,2.5,62,0.00,,,0.00,WUHU216HW,2013-11-22 09:00:00,
2013-11-22 03:01:00,21.6,10.5,30.48,NNW,338,2.5,2.5,62,0.00,,,0.00,WUHU216HW,2013-11-22 09:01:00,
2013-11-22 03:05:00,21.6,10.5,30.48,NNW,338,2.5,2.5,62,0.00,,,0.00,WUHU216HW,2013-11-22 09:05:00,
2013-11-22 03:06:00,21.6,10.5,30.48,NNW,338,2.5,2.5,62,0.00,,,0.00,WUHU216HW,2013-11-22 09:06:00,
2013-11-22 03:07:00,21.6,10.5,30.48,NNW,338,2.5,2.5,62,0.00,,,0.00,WUHU216HW,2013-11-22 09:07:00,
2013-11-22 03:30:00,20.2,8.5,30.48,WNW,293,7.6,7.6,60,0.00,,,0.00,WUHU216HW,2013-11-22 09:30:00,
2013-11-22 03:35:00,20.2,8.5,30.48,WNW,293,8.7,8.7,60,0.00,,,0.00,WUHU216HW,2013-11-22 09:35:00,
2013-11-22 04:00:00,18.9,6.8,30.48,NW,315,5.6,5.6,59,0.00,,,0.00,WUHU216HW,2013-11-22 10:00:00,
2013-11-22 04:05:00,18.9,6.8,30.48,NW,315,3.4,5.6,59,0.00,,,0.00,WUHU216HW,2013-11-22 10:05:00,
2013-11-22 04:06:00,18.9,6.8,30.48,NW,315,3.4,5.6,59,0.00,,,0.00,WUHU216HW,2013-11-22 10:06:00,
2013-11-22 04:10:00,18.9,6.8,30.48,NW,315,3.4,3.4,59,0.00,,,0.00,WUHU216HW,2013-11-22 10:10:00,
2013-11-22 04:30:00,18.0,6.0,30.48,NW,315,4.3,4.3,59,0.00,,,0.00,WUHU216HW,2013-11-22 10:30:00,
2013-11-22 04:31:00,18.0,6.0,30.48,WNW,301,4.0,4.3,59,0.00,,,0.00,WUHU216HW,2013-11-22 10:31:00,
2013-11-22 04:35:00,18.0,6.0,30.48,WNW,293,3.8,4.3,59,0.00,,,0.00,WUHU216HW,2013-11-22 10:35:00,
2013-11-22 04:36:00,18.0,6.0,30.48,WNW,293,3.8,4.3,59,0.00,,,0.00,WUHU216HW,2013-11-22 10:36:00,
2013-11-22 04:40:00,18.0,6.0,30.48,WNW,293,3.8,3.8,59,0.00,,,0.00,WUHU216HW,2013-11-22 10:40:00,
2013-11-22 05:00:00,16.9,4.2,30.48,WNW,293,2.7,2.7,57,0.00,,,0.00,WUHU216HW,2013-11-22 11:00:00,
2013-11-22 05:05:00,16.9,4.2,30.48,WNW,293,2.5,2.7,57,0.00,,,0.00,WUHU216HW,2013-11-22 11:05:00,
2013-11-22 05:06:00,16.9,4.2,30.48,WNW,293,2.5,2.7,57,0.00,,,0.00,WUHU216HW,2013-11-22 11:06:00,
2013-11-22 05:30:00,16.2,4.0,30.48,WSW,248,3.8,3.8,58,0.00,,,0.00,WUHU216HW,2013-11-22 11:30:00,
2013-11-22 05:35:00,16.2,4.0,30.48,NW,315,4.7,4.7,58,0.00,,,0.00,WUHU216HW,2013-11-22 11:35:00,
2013-11-22 05:36:00,16.2,4.0,30.48,NW,315,4.7,4.7,58,0.00,,,0.00,WUHU216HW,2013-11-22 11:36:00,
2013-11-22 05:40:00,16.2,4.0,30.48,NW,315,4.7,4.7,58,0.00,,,0.00,WUHU216HW,2013-11-22 11:40:00,
2013-11-22 06:00:00,15.5,2.9,30.48,West,270,1.8,1.8,57,0.00,,,0.00,WUHU216HW,2013-11-22 12:00:00,
2013-11-22 06:05:00,15.5,2.9,30.48,West,270,1.8,1.8,57,0.00,,,0.00,WUHU216HW,2013-11-22 12:05:00,
2013-11-22 06:10:00,15.5,2.9,30.48,West,270,1.8,1.8,57,0.00,,,0.00,WUHU216HW,2013-11-22 12:10:00,
2013-11-22 06:30:00,14.9,1.5,30.49,SSW,203,1.3,1.3,55,0.00,,,0.00,WUHU216HW,2013-11-22 12:30:00,
2013-11-22 06:31:00,14.8,1.5,30.49,SW,215,1.2,1.3,55,0.00,,,0.00,WUHU216HW,2013-11-22 12:31:00,
2013-11-22 06:32:00,14.8,1.5,30.49,SW,215,1.2,1.3,55,0.00,,,0.00,WUHU216HW,2013-11-22 12:32:00,
2013-11-22 06:35:00,14.8,1.5,30.49,WSW,248,1.1,1.3,55,0.00,,,0.00,WUHU216HW,2013-11-22 12:35:00,
2013-11-22 06:36:00,14.8,1.5,30.49,WSW,248,1.1,1.3,55,0.00,,,0.00,WUHU216HW,2013-11-22 12:36:00,
2013-11-22 06:37:00,14.8,1.5,30.49,WSW,248,1.1,1.3,55,0.00,,,0.00,WUHU216HW,2013-11-22 12:37:00,
2013-11-22 07:00:00,14.6,1.6,30.50,WNW,293,3.4,3.4,56,0.00,,,0.00,WUHU216HW,2013-11-22 13:00:00,
2013-11-22 07:01:00,14.6,1.6,30.51,West,270,4.3,4.3,56,0.00,,,0.00,WUHU216HW,2013-11-22 13:01:00,
2013-11-22 07:05:00,14.6,1.6,30.51,West,270,4.3,4.3,56,0.00,,,0.00,WUHU216HW,2013-11-22 13:05:00,
2013-11-22 07:06:00,14.6,1.6,30.51,West,270,4.3,4.3,56,0.00,,,0.00,WUHU216HW,2013-11-22 13:06:00,
2013-11-22 07:07:00,14.6,1.6,30.51,West,270,4.3,4.3,56,0.00,,,0.00,WUHU216HW,2013-11-22 13:07:00,
2013-11-22 07:10:00,14.6,1.6,30.51,West,270,4.3,4.3,56,0.00,,,0.00,WUHU216HW,2013-11-22 13:10:00,
2013-11-22 07:30:00,13.9,1.7,30.48,West,270,2.2,2.2,58,0.00,,,0.00,WUHU216HW,2013-11-22 13:30:00,
2013-11-22 07:31:00,14.0,1.9,30.48,West,270,2.1,2.2,58,0.00,,,0.00,WUHU216HW,2013-11-22 13:31:00,
2013-11-22 07:35:00,14.0,1.9,30.48,West,270,1.8,2.2,58,0.00,,,0.00,WUHU216HW,2013-11-22 13:35:00,
2013-11-22 07:36:00,14.0,1.9,30.48,West,270,1.8,2.2,58,0.00,,,0.00,WUHU216HW,2013-11-22 13:36:00,
2013-11-22 08:00:00,15.3,4.5,30.49,WSW,248,2.9,2.9,62,0.00,,,0.00,WUHU216HW,2013-11-22 14:00:00,
2013-11-22 08:01:00,15.3,4.5,30.49,WSW,248,3.1,3.1,62,0.00,,,0.00,WUHU216HW,2013-11-22 14:01:00,
2013-11-22 08:05:00,15.3,4.5,30.49,WSW,248,3.1,3.1,62,0.00,,,0.00,WUHU216HW,2013-11-22 14:05:00,
2013-11-22 08:06:00,15.3,4.5,30.49,WSW,248,3.1,3.1,62,0.00,,,0.00,WUHU216HW,2013-11-22 14:06:00,
2013-11-22 08:30:00,16.7,6.0,30.49,SSW,203,3.4,3.4,62,0.00,,,0.00,WUHU216HW,2013-11-22 14:30:00,
2013-11-22 08:35:00,16.7,6.0,30.49,SSW,203,2.7,3.4,62,0.00,,,0.00,WUHU216HW,2013-11-22 14:35:00,
2013-11-22 08:40:00,16.7,6.0,30.49,SSW,203,2.7,3.4,62,0.00,,,0.00,WUHU216HW,2013-11-22 14:40:00,
2013-11-22 09:00:00,17.6,7.1,30.49,SW,225,2.5,2.5,63,0.00,,,0.00,WUHU216HW,2013-11-22 15:00:00,
2013-11-22 09:05:00,17.8,7.3,30.49,SW,225,2.5,2.5,63,0.00,,,0.00,WUHU216HW,2013-11-22 15:05:00,
2013-11-22 09:07:00,17.8,7.3,30.49,SW,225,2.5,2.5,63,0.00,,,0.00,WUHU216HW,2013-11-22 15:07:00,
2013-11-22 09:10:00,17.8,7.3,30.49,SW,225,2.5,2.5,63,0.00,,,0.00,WUHU216HW,2013-11-22 15:10:00,
2013-11-22 09:30:00,19.3,8.9,30.49,SW,225,3.4,3.4,64,0.00,,,0.00,WUHU216HW,2013-11-22 15:30:00,
2013-11-22 09:31:00,19.3,8.9,30.49,SSW,211,3.3,3.4,64,0.00,,,0.00,WUHU216HW,2013-11-22 15:31:00,
2013-11-22 09:35:00,19.3,8.9,30.49,South,180,3.1,3.4,64,0.00,,,0.00,WUHU216HW,2013-11-22 15:35:00,
2013-11-22 09:36:00,19.3,8.9,30.49,South,180,3.1,3.4,64,0.00,,,0.00,WUHU216HW,2013-11-22 15:36:00,
2013-11-22 09:40:00,19.3,8.9,30.49,South,180,3.1,3.1,64,0.00,,,0.00,WUHU216HW,2013-11-22 15:40:00,
2013-11-22 10:00:00,21.4,10.4,30.48,SW,225,2.9,2.9,62,0.00,,,0.00,WUHU216HW,2013-11-22 16:00:00,
2013-11-22 10:01:00,21.6,10.2,30.47,SW,234,4.2,5.1,61,0.00,,,0.00,WUHU216HW,2013-11-22 16:01:00,
2013-11-22 10:05:00,21.6,10.2,30.47,SSW,203,3.6,5.1,61,0.00,,,0.00,WUHU216HW,2013-11-22 16:05:00,
2013-11-22 10:06:00,21.6,10.2,30.47,SSW,203,3.6,5.1,61,0.00,,,0.00,WUHU216HW,2013-11-22 16:06:00,
2013-11-22 10:07:00,21.6,10.2,30.47,SSW,203,3.6,5.1,61,0.00,,,0.00,WUHU216HW,2013-11-22 16:07:00,
2013-11-22 10:10:00,21.6,10.2,30.47,SSW,203,3.6,5.1,61,0.00,,,0.00,WUHU216HW,2013-11-22 16:10:00,
2013-11-22 10:30:00,24.8,11.7,30.45,SSE,158,3.8,3.8,57,0.00,,,0.00,WUHU216HW,2013-11-22 16:30:00,
2013-11-22 10:31:00,24.8,11.7,30.45,South,177,3.7,3.8,57,0.00,,,0.00,WUHU216HW,2013-11-22 16:31:00,
2013-11-22 10:35:00,24.8,11.7,30.45,SW,225,3.4,3.8,57,0.00,,,0.00,WUHU216HW,2013-11-22 16:35:00,
2013-11-22 10:36:00,24.8,11.7,30.45,SW,225,3.4,3.8,57,0.00,,,0.00,WUHU216HW,2013-11-22 16:36:00,
2013-11-22 11:00:00,26.8,10.2,30.44,SSW,203,7.6,7.6,49,0.00,,,0.00,WUHU216HW,2013-11-22 17:00:00,
2013-11-22 11:05:00,26.8,9.6,30.44,SSE,158,8.9,9.2,48,0.00,,,0.00,WUHU216HW,2013-11-22 17:05:00,
2013-11-22 11:10:00,26.8,9.6,30.44,SSE,158,8.9,8.9,48,0.00,,,0.00,WUHU216HW,2013-11-22 17:10:00,
2013-11-22 11:30:00,27.7,9.0,30.43,SSW,203,2.0,2.0,45,0.00,,,0.00,WUHU216HW,2013-11-22 17:30:00,
2013-11-22 11:35:00,27.9,9.2,30.43,SSW,203,4.9,4.9,45,0.00,,,0.00,WUHU216HW,2013-11-22 17:35:00,
2013-11-22 11:36:00,27.9,9.2,30.43,SSW,203,4.9,4.9,45,0.00,,,0.00,WUHU216HW,2013-11-22 17:36:00,
2013-11-22 11:40:00,27.9,9.2,30.43,SSW,203,4.9,4.9,45,0.00,,,0.00,WUHU216HW,2013-11-22 17:40:00,
2013-11-22 12:00:00,30.1,9.2,30.42,SSW,203,6.3,6.3,41,0.00,,,0.00,WUHU216HW,2013-11-22 18:00:00,
2013-11-22 12:01:00,30.1,9.2,30.42,SSW,203,6.3,6.3,41,0.00,,,0.00,WUHU216HW,2013-11-22 18:01:00,
2013-11-22 12:05:00,30.1,9.2,30.42,SSW,203,6.3,6.3,41,0.00,,,0.00,WUHU216HW,2013-11-22 18:05:00,
2013-11-22 12:06:00,30.1,9.2,30.42,SSW,203,6.3,6.3,41,0.00,,,0.00,WUHU216HW,2013-11-22 18:06:00,
2013-11-22 12:10:00,30.1,9.2,30.42,SSW,203,6.3,6.3,41,0.00,,,0.00,WUHU216HW,2013-11-22 18:10:00,
2013-11-22 12:30:00,31.3,7.9,30.41,West,270,7.4,7.4,37,0.00,,,0.00,WUHU216HW,2013-11-22 18:30:00,
2013-11-22 12:35:00,31.3,7.9,30.41,SSW,203,11.0,11.0,37,0.00,,,0.00,WUHU216HW,2013-11-22 18:35:00,
2013-11-22 12:36:00,31.3,7.9,30.41,SSW,203,11.0,11.0,37,0.00,,,0.00,WUHU216HW,2013-11-22 18:36:00,
2013-11-22 12:40:00,31.3,7.9,30.41,SSW,203,11.0,11.0,37,0.00,,,0.00,WUHU216HW,2013-11-22 18:40:00,
2013-11-22 13:00:00,32.6,5.9,30.40,WSW,248,8.5,8.5,32,0.00,,,0.00,WUHU216HW,2013-11-22 19:00:00,
2013-11-22 13:05:00,32.6,5.9,30.40,SW,225,11.4,11.4,32,0.00,,,0.00,WUHU216HW,2013-11-22 19:05:00,
2013-11-22 13:06:00,32.6,5.9,30.40,SW,225,11.4,11.4,32,0.00,,,0.00,WUHU216HW,2013-11-22 19:06:00,
2013-11-22 13:10:00,32.6,5.9,30.40,SW,225,11.4,11.4,32,0.00,,,0.00,WUHU216HW,2013-11-22 19:10:00,
2013-11-22 13:30:00,33.1,5.8,30.39,SW,225,8.5,8.5,31,0.00,,,0.00,WUHU216HW,2013-11-22 19:30:00,
2013-11-22 13:35:00,32.9,5.6,30.39,SW,225,6.9,8.5,31,0.00,,,0.00,WUHU216HW,2013-11-22 19:35:00,
2013-11-22 13:36:00,32.9,5.6,30.39,SW,225,6.9,8.5,31,0.00,,,0.00,WUHU216HW,2013-11-22 19:36:00,
2013-11-22 13:40:00,32.9,5.6,30.39,SW,225,6.9,6.9,31,0.00,,,0.00,WUHU216HW,2013-11-22 19:40:00,
2013-11-22 14:00:00,33.1,4.2,30.39,West,270,12.5,12.5,29,0.00,,,0.00,WUHU216HW,2013-11-22 20:00:00,
2013-11-22 14:01:00,33.1,4.2,30.39,West,270,16.3,16.3,29,0.00,,,0.00,WUHU216HW,2013-11-22 20:01:00,
2013-11-22 14:05:00,33.1,4.2,30.39,West,270,16.3,16.3,29,0.00,,,0.00,WUHU216HW,2013-11-22 20:05:00,
2013-11-22 14:06:00,33.1,4.2,30.39,West,270,16.3,16.3,29,0.00,,,0.00,WUHU216HW,2013-11-22 20:06:00,
2013-11-22 14:10:00,33.1,4.2,30.39,West,270,16.3,16.3,29,0.00,,,0.00,WUHU216HW,2013-11-22 20:10:00,
2013-11-22 14:30:00,32.9,5.6,30.37,WSW,248,17.0,17.0,31,0.00,,,0.00,WUHU216HW,2013-11-22 20:30:00,
2013-11-22 14:31:00,32.9,5.6,30.37,WSW,248,17.0,17.0,31,0.00,,,0.00,WUHU216HW,2013-11-22 20:31:00,
2013-11-22 14:35:00,32.9,5.6,30.37,WSW,248,17.0,17.0,31,0.00,,,0.00,WUHU216HW,2013-11-22 20:35:00,
2013-11-22 14:36:00,32.9,5.6,30.37,WSW,248,17.0,17.0,31,0.00,,,0.00,WUHU216HW,2013-11-22 20:36:00,
2013-11-22 14:37:00,32.9,5.6,30.37,WSW,248,17.0,17.0,31,0.00,,,0.00,WUHU216HW,2013-11-22 20:37:00,
2013-11-22 14:40:00,32.9,5.6,30.37,WSW,248,17.0,17.0,31,0.00,,,0.00,WUHU216HW,2013-11-22 20:40:00,
2013-11-22 15:00:00,32.4,6.4,30.38,WNW,293,13.0,13.0,33,0.00,,,0.00,WUHU216HW,2013-11-22 21:00:00,
2013-11-22 15:01:00,32.6,6.5,30.38,NW,309,11.6,13.0,33,0.00,,,0.00,WUHU216HW,2013-11-22 21:01:00,
2013-11-22 15:05:00,32.6,6.5,30.38,NW,315,11.2,13.0,33,0.00,,,0.00,WUHU216HW,2013-11-22 21:05:00,
2013-11-22 15:06:00,32.6,6.5,30.38,NW,315,11.2,13.0,33,0.00,,,0.00,WUHU216HW,2013-11-22 21:06:00,
2013-11-22 15:10:00,32.6,6.5,30.38,NW,315,11.2,11.2,33,0.00,,,0.00,WUHU216HW,2013-11-22 21:10:00,
2013-11-22 15:30:00,31.5,9.4,30.39,WNW,293,10.7,10.7,39,0.00,,,0.00,WUHU216HW,2013-11-22 21:30:00,
2013-11-22 15:31:00,31.5,9.4,30.39,West,270,11.9,11.9,39,0.00,,,0.00,WUHU216HW,2013-11-22 21:31:00,
2013-11-22 15:35:00,31.5,9.4,30.39,West,270,11.9,11.9,39,0.00,,,0.00,WUHU216HW,2013-11-22 21:35:00,
2013-11-22 15:36:00,31.5,9.4,30.39,West,270,11.9,11.9,39,0.00,,,0.00,WUHU216HW,2013-11-22 21:36:00,
2013-11-22 15:37:00,31.5,9.4,30.39,West,270,11.9,11.9,39,0.00,,,0.00,WUHU216HW,2013-11-22 21:37:00,
2013-11-22 16:00:00,29.9,11.5,30.40,WSW,248,13.4,13.4,46,0.00,,,0.00,WUHU216HW,2013-11-22 22:00:00,
2013-11-22 16:05:00,29.9,11.5,30.40,West,270,13.4,16.1,46,0.00,,,0.00,WUHU216HW,2013-11-22 22:05:00,
2013-11-22 16:06:00,29.9,11.5,30.40,West,270,13.4,16.1,46,0.00,,,0.00,WUHU216HW,2013-11-22 22:06:00,
2013-11-22 16:10:00,29.9,11.5,30.40,West,270,13.4,13.4,46,0.00,,,0.00,WUHU216HW,2013-11-22 22:10:00,
2013-11-22 16:30:00,28.1,11.9,30.41,WNW,293,13.2,13.2,50,0.00,,,0.00,WUHU216HW,2013-11-22 22:30:00,
2013-11-22 16:31:00,28.1,11.9,30.41,West,270,13.6,13.6,50,0.00,,,0.00,WUHU216HW,2013-11-22 22:31:00,
2013-11-22 16:35:00,28.1,11.9,30.41,West,270,13.6,13.6,50,0.00,,,0.00,WUHU216HW,2013-11-22 22:35:00,
2013-11-22 16:36:00,28.1,11.9,30.41,West,270,13.6,13.6,50,0.00,,,0.00,WUHU216HW,2013-11-22 22:36:00,
2013-11-22 17:00:00,27.2,11.8,30.41,WNW,293,7.2,7.2,52,0.00,,,0.00,WUHU216HW,2013-11-22 23:00:00,
2013-11-22 17:05:00,27.2,11.8,30.41,WNW,293,7.6,7.6,52,0.00,,,0.00,WUHU216HW,2013-11-22 23:05:00,
2013-11-22 17:10:00,27.2,11.8,30.41,WNW,293,7.6,7.6,52,0.00,,,0.00,WUHU216HW,2013-11-22 23:10:00,
2013-11-22 17:30:00,26.3,12.6,30.42,WNW,293,8.9,8.9,56,0.00,,,0.00,WUHU216HW,2013-11-22 23:30:00,
2013-11-22 17:31:00,26.3,12.6,30.42,WNW,293,8.9,8.9,56,0.00,,,0.00,WUHU216HW,2013-11-22 23:31:00,
2013-11-22 17:35:00,26.3,12.6,30.42,WNW,293,8.9,8.9,56,0.00,,,0.00,WUHU216HW,2013-11-22 23:35:00,
2013-11-22 17:36:00,26.3,12.6,30.42,WNW,293,8.9,8.9,56,0.00,,,0.00,WUHU216HW,2013-11-22 23:36:00,
2013-11-22 17:40:00,26.3,12.6,30.42,WNW,293,8.9,8.9,56,0.00,,,0.00,WUHU216HW,2013-11-22 23:40:00,
2013-11-22 18:00:00,24.8,13.3,30.43,NW,315,5.8,5.8,61,0.00,,,0.00,WUHU216HW,2013-11-23 00:00:00,
2013-11-22 18:05:00,24.8,13.3,30.43,WNW,293,6.0,6.7,61,0.00,,,0.00,WUHU216HW,2013-11-23 00:05:00,
2013-11-22 18:30:00,23.6,9.3,30.44,WNW,293,6.9,6.9,54,0.00,,,0.00,WUHU216HW,2013-11-23 00:30:00,
2013-11-22 18:31:00,23.6,9.3,30.44,NW,315,7.4,7.4,54,0.00,,,0.00,WUHU216HW,2013-11-23 00:31:00,
2013-11-22 18:35:00,23.6,9.3,30.44,NW,315,7.4,7.4,54,0.00,,,0.00,WUHU216HW,2013-11-23 00:35:00,
2013-11-22 18:36:00,23.6,9.3,30.44,NW,315,7.4,7.4,54,0.00,,,0.00,WUHU216HW,2013-11-23 00:36:00,
2013-11-22 18:40:00,23.6,9.3,30.44,NW,315,7.4,7.4,54,0.00,,,0.00,WUHU216HW,2013-11-23 00:40:00,
2013-11-22 19:00:00,23.0,10.4,30.45,NNW,338,7.6,7.6,58,0.00,,,0.00,WUHU216HW,2013-11-23 01:00:00,
2013-11-22 19:05:00,23.0,10.0,30.45,NW,315,6.3,7.6,57,0.00,,,0.00,WUHU216HW,2013-11-23 01:05:00,
2013-11-22 19:06:00,23.0,10.0,30.45,NW,315,6.3,7.6,57,0.00,,,0.00,WUHU216HW,2013-11-23 01:06:00,
2013-11-22 19:10:00,23.0,10.0,30.45,NW,315,6.3,6.3,57,0.00,,,0.00,WUHU216HW,2013-11-23 01:10:00,
2013-11-22 19:30:00,21.2,10.3,30.46,NW,315,7.6,7.6,62,0.00,,,0.00,WUHU216HW,2013-11-23 01:30:00,
2013-11-22 19:31:00,21.2,10.5,30.46,NW,322,7.5,7.6,63,0.00,,,0.00,WUHU216HW,2013-11-23 01:31:00,
2013-11-22 19:35:00,21.2,10.5,30.46,NNW,338,7.2,7.6,63,0.00,,,0.00,WUHU216HW,2013-11-23 01:35:00,
2013-11-22 19:36:00,21.2,10.5,30.46,NNW,338,7.2,7.6,63,0.00,,,0.00,WUHU216HW,2013-11-23 01:36:00,
2013-11-22 19:40:00,21.2,10.5,30.46,NNW,338,7.2,7.6,63,0.00,,,0.00,WUHU216HW,2013-11-23 01:40:00,
2013-11-22 20:00:00,20.0,9.3,30.47,NNW,338,7.6,7.6,63,0.00,,,0.00,WUHU216HW,2013-11-23 02:00:00,
2013-11-22 20:05:00,20.0,9.3,30.47,NW,315,7.2,7.6,63,0.00,,,0.00,WUHU216HW,2013-11-23 02:05:00,
2013-11-22 20:10:00,20.0,9.3,30.47,NW,315,7.2,7.6,63,0.00,,,0.00,WUHU216HW,2013-11-23 02:10:00,
2013-11-22 20:30:00,19.1,8.5,30.48,NNW,338,8.3,8.3,63,0.00,,,0.00,WUHU216HW,2013-11-23 02:30:00,
2013-11-22 20:31:00,19.1,8.5,30.48,NNW,338,8.3,8.3,63,0.00,,,0.00,WUHU216HW,2013-11-23 02:31:00,
2013-11-22 20:35:00,19.1,8.5,30.48,NNW,338,8.3,8.3,63,0.00,,,0.00,WUHU216HW,2013-11-23 02:35:00,
2013-11-22 20:37:00,19.1,8.5,30.48,NNW,338,8.3,8.3,63,0.00,,,0.00,WUHU216HW,2013-11-23 02:37:00,
2013-11-22 20:40:00,19.1,8.5,30.48,NNW,338,8.3,8.3,63,0.00,,,0.00,WUHU216HW,2013-11-23 02:40:00,
2013-11-22 21:00:00,17.1,6.6,30.50,NW,315,5.8,5.8,63,0.00,,,0.00,WUHU216HW,2013-11-23 03:00:00,
2013-11-22 21:05:00,17.1,6.6,30.50,WNW,293,14.3,14.3,63,0.00,,,0.00,WUHU216HW,2013-11-23 03:05:00,
2013-11-22 21:10:00,17.1,6.6,30.50,WNW,293,14.3,14.3,63,0.00,,,0.00,WUHU216HW,2013-11-23 03:10:00,
2013-11-22 21:30:00,15.7,5.2,30.51,NNW,338,11.6,11.6,63,0.00,,,0.00,WUHU216HW,2013-11-23 03:30:00,
2013-11-22 21:31:00,15.7,5.2,30.51,NNW,331,10.9,11.6,63,0.00,,,0.00,WUHU216HW,2013-11-23 03:31:00,
2013-11-22 21:35:00,15.7,5.2,30.51,NW,315,9.6,11.6,63,0.00,,,0.00,WUHU216HW,2013-11-23 03:35:00,
2013-11-22 21:36:00,15.7,5.2,30.51,NW,315,9.6,11.6,63,0.00,,,0.00,WUHU216HW,2013-11-23 03:36:00,
2013-11-22 21:37:00,15.7,5.2,30.51,NW,315,9.6,11.6,63,0.00,,,0.00,WUHU216HW,2013-11-23 03:37:00,
2013-11-22 21:40:00,15.7,5.2,30.51,NW,315,9.6,9.6,63,0.00,,,0.00,WUHU216HW,2013-11-23 03:40:00,
2013-11-22 22:00:00,14.9,4.9,30.52,NW,315,10.3,10.3,64,0.00,,,0.00,WUHU216HW,2013-11-23 04:00:00,
2013-11-22 22:01:00,14.9,4.9,30.52,NNW,331,8.8,10.3,64,0.00,,,0.00,WUHU216HW,2013-11-23 04:01:00,
2013-11-22 22:05:00,14.9,4.9,30.52,NNW,338,8.3,10.3,64,0.00,,,0.00,WUHU216HW,2013-11-23 04:05:00,
2013-11-22 22:06:00,14.9,4.9,30.52,NNW,338,8.3,10.3,64,0.00,,,0.00,WUHU216HW,2013-11-23 04:06:00,
2013-11-22 22:10:00,14.9,4.9,30.52,NNW,338,8.3,8.3,64,0.00,,,0.00,WUHU216HW,2013-11-23 04:10:00,
2013-11-22 22:30:00,14.8,4.4,30.54,NNW,338,11.4,11.4,63,0.00,,,0.00,WUHU216HW,2013-11-23 04:30:00,
2013-11-22 22:35:00,14.9,4.5,30.54,NNW,338,8.1,11.4,63,0.00,,,0.00,WUHU216HW,2013-11-23 04:35:00,
2013-11-22 22:36:00,14.9,4.5,30.54,NNW,338,8.1,11.4,63,0.00,,,0.00,WUHU216HW,2013-11-23 04:36:00,
2013-11-22 23:00:00,13.3,2.0,30.56,North,0,12.3,12.3,60,0.00,,,0.00,WUHU216HW,2013-11-23 05:00:00,
2013-11-22 23:01:00,13.3,2.0,30.56,North,0,11.5,12.3,60,0.00,,,0.00,WUHU216HW,2013-11-23 05:01:00,
2013-11-22 23:06:00,13.3,2.0,30.56,North,0,9.2,12.3,60,0.00,,,0.00,WUHU216HW,2013-11-23 05:06:00,
2013-11-22 23:07:00,13.3,2.0,30.56,North,0,9.2,12.3,60,0.00,,,0.00,WUHU216HW,2013-11-23 05:07:00,
2013-11-22 23:30:00,13.3,1.6,30.56,NNW,338,8.5,8.5,59,0.00,,,0.00,WUHU216HW,2013-11-23 05:30:00,
2013-11-22 23:31:00,13.5,1.8,30.56,NNW,338,6.7,8.5,59,0.00,,,0.00,WUHU216HW,2013-11-23 05:31:00,
2013-11-22 23:35:00,13.5,1.8,30.56,NNW,338,5.8,8.5,59,0.00,,,0.00,WUHU216HW,2013-11-23 05:35:00,
2013-11-22 23:36:00,13.5,1.8,30.56,NNW,338,5.8,8.5,59,0.00,,,0.00,WUHU216HW,2013-11-23 05:36:00,
2013-11-22 23:40:00,13.5,1.8,30.56,NNW,338,5.8,5.8,59,0.00,,,0.00,WUHU216HW,2013-11-23 05:40:00,